Highgate, VT

7:27 AM EDT on March 29, 2017 (GMT -0400)
Franklin County State

Weather History for KFSO - February, 2012

Change the Weather History Date:

Saturday, February 18, 2012

  Actual Average (KPBG) Record (KPBG)
Temperature  
Mean Temperature 32 °F -  
Max Temperature 34 °F 28 °F 59 °F (1981)
Min Temperature 29 °F 6 °F -17 °F (1973)
Degree Days  
Heating Degree Days 34    
Moisture  
Dew Point 22 °F    
Average Humidity 66    
Maximum Humidity 76    
Minimum Humidity 54    
Precipitation  
Precipitation 0.00 in - - ()
Sea Level Pressure  
Sea Level Pressure 29.90 in    
Wind  
Wind Speed 5 mph (West)    
Max Wind Speed 9 mph    
Max Gust Speed -    
Visibility 10 miles    
Events      
Averages and records for this station are not official NWS values.
T = Trace of Precipitation, MM = Missing Value Source: NWS Daily Summary

Daily Weather History Graph

Daily Weather History Graph

Search for Another Location

Airport or City:

Trip Planner

Search our weather history database for the weather conditions in past years. The results will help you decide how hot, cold, wet, or windy it might be!

Date:

Astronomy

Feb. 18, 2012 Rise Set
Actual Time 6:49 AM EST 5:24 PM EST
Civil Twilight 6:19 AM EST 5:54 PM EST
Nautical Twilight 5:45 AM EST 6:28 PM EST
Astronomical Twilight 5:11 AM EST 7:02 PM EST
Moon 4:33 AM EST (2/18) 2:11 PM EST (2/18)
Length of Visible Light 11h 34m
Length of Day
10h 34m
Waning Crescent, 11% of the Moon is Illuminated
Feb 18
Waning Crescent
Feb 21
New
Feb 29
First Quarter
Mar 8
Full
Mar 14
Last Quarter

Hourly Weather History & Observations

Time (EST) Temp. Windchill Dew Point Humidity Pressure Visibility Wind Dir Wind Speed Gust Speed Precip Events Conditions
12:15 AM 32.9 °F 28.5 °F 23.0 °F 67% 29.87 in 10.0 mi West 4.6 mph - N/A   Overcast
12:35 AM 32.9 °F 28.5 °F 22.8 °F 66% 29.87 in 10.0 mi West 4.6 mph - N/A   Overcast
12:55 AM 32.4 °F 26.0 °F 22.3 °F 66% 29.87 in 10.0 mi West 6.9 mph - N/A   Overcast
1:15 AM 32.0 °F 27.5 °F 22.1 °F 67% 29.88 in 10.0 mi West 4.6 mph - N/A   Overcast
1:35 AM 32.0 °F 26.4 °F 22.3 °F 67% 29.88 in 10.0 mi West 5.8 mph - N/A   Overcast
2:15 AM 32.0 °F 27.5 °F 22.6 °F 68% 29.89 in 10.0 mi West 4.6 mph - N/A   Overcast
2:35 AM 32.0 °F 25.6 °F 23.4 °F 70% 29.88 in 10.0 mi West 6.9 mph - N/A   Overcast
2:55 AM 32.0 °F 24.2 °F 24.3 °F 73% 29.88 in 10.0 mi West 9.2 mph - N/A   Overcast
3:15 AM 32.0 °F 25.6 °F 24.4 °F 74% 29.88 in 10.0 mi West 6.9 mph - N/A   Overcast
3:35 AM 32.0 °F 26.4 °F 24.8 °F 75% 29.88 in 10.0 mi WSW 5.8 mph - N/A   Overcast
3:55 AM 32.0 °F 26.4 °F 25.2 °F 76% 29.89 in 10.0 mi WSW 5.8 mph - N/A   Overcast
4:15 AM 31.8 °F 26.2 °F 25.0 °F 76% 29.89 in 10.0 mi SW 5.8 mph - N/A   Overcast
4:35 AM 32.0 °F 26.4 °F 25.2 °F 76% 29.90 in 10.0 mi WSW 5.8 mph - N/A   Overcast
4:55 AM 32.0 °F 25.6 °F 24.4 °F 74% 29.90 in 10.0 mi WSW 6.9 mph - N/A   Overcast
5:15 AM 32.0 °F 27.5 °F 23.9 °F 72% 29.90 in 10.0 mi WSW 4.6 mph - N/A   Overcast
5:35 AM 32.0 °F 28.7 °F 23.7 °F 71% 29.90 in 10.0 mi West 3.5 mph - N/A   Overcast
5:55 AM 32.0 °F 26.4 °F 22.8 °F 69% 29.91 in 10.0 mi West 5.8 mph - N/A   Overcast
6:15 AM 32.0 °F 26.4 °F 22.5 °F 68% 29.91 in 10.0 mi West 5.8 mph - N/A   Overcast
6:35 AM 32.0 °F 26.4 °F 22.6 °F 68% 29.92 in 10.0 mi West 5.8 mph - N/A   Overcast
6:55 AM 32.0 °F 25.6 °F 22.6 °F 68% 29.92 in 10.0 mi West 6.9 mph - N/A   Overcast
7:15 AM 32.0 °F 26.4 °F 22.8 °F 69% 29.92 in 10.0 mi West 5.8 mph - N/A   Overcast
7:35 AM 32.0 °F 27.5 °F 22.8 °F 69% 29.92 in 10.0 mi West 4.6 mph - N/A   Overcast
7:55 AM 32.0 °F 27.5 °F 22.8 °F 69% 29.92 in 10.0 mi West 4.6 mph - N/A   Overcast
8:15 AM 32.0 °F 25.6 °F 22.8 °F 69% 29.92 in 10.0 mi West 6.9 mph - N/A   Overcast
8:35 AM 32.0 °F 26.4 °F 22.8 °F 69% 29.92 in 10.0 mi WSW 5.8 mph - N/A   Mostly Cloudy
9:15 AM 32.0 °F 28.7 °F 22.5 °F 68% 29.92 in 10.0 mi WSW 3.5 mph - N/A   Overcast
9:35 AM 32.0 °F 25.6 °F 21.2 °F 64% 29.91 in 10.0 mi WSW 6.9 mph - N/A   Scattered Clouds
9:55 AM 33.8 °F 27.0 °F 22.8 °F 64% 29.90 in 10.0 mi West 8.1 mph - N/A   Mostly Cloudy
10:15 AM 32.0 °F 25.6 °F 21.0 °F 64% 29.90 in 10.0 mi West 6.9 mph - N/A   Overcast
10:35 AM 33.6 °F 28.4 °F 21.9 °F 62% 29.90 in 10.0 mi WNW 5.8 mph - N/A   Overcast
10:55 AM 34.2 °F 29.0 °F 22.1 °F 61% 29.90 in 10.0 mi WSW 5.8 mph - N/A   Overcast
11:15 AM 34.3 °F 31.4 °F 21.4 °F 59% 29.89 in 10.0 mi West 3.5 mph - N/A   Overcast
11:35 AM 32.9 °F 27.5 °F 19.9 °F 59% 29.89 in 10.0 mi West 5.8 mph - N/A   Mostly Cloudy
11:55 AM 34.3 °F 30.2 °F 20.5 °F 57% 29.88 in 10.0 mi West 4.6 mph - N/A   Mostly Cloudy
12:15 PM 34.0 °F 29.8 °F 20.5 °F 58% 29.87 in 10.0 mi West 4.6 mph - N/A   Overcast
12:35 PM 34.3 °F 31.4 °F 20.3 °F 57% 29.86 in 10.0 mi NW 3.5 mph - N/A   Overcast
12:55 PM 34.3 °F - 21.0 °F 58% 29.86 in 10.0 mi Calm Calm - N/A   Overcast
1:15 PM 34.3 °F 31.4 °F 21.2 °F 59% 29.86 in 10.0 mi WNW 3.5 mph - N/A   Overcast
1:35 PM 34.3 °F - 20.1 °F 56% 29.86 in 10.0 mi Calm Calm - N/A   Overcast
1:55 PM 34.3 °F 31.4 °F 20.1 °F 56% 29.85 in 10.0 mi NNW 3.5 mph - N/A   Overcast
2:15 PM 34.5 °F 27.9 °F 19.4 °F 54% 29.85 in 10.0 mi North 8.1 mph - N/A   Mostly Cloudy
2:35 PM 34.3 °F 28.4 °F 21.4 °F 59% 29.85 in 10.0 mi North 6.9 mph - N/A   Scattered Clouds
2:55 PM 34.3 °F 29.2 °F 21.6 °F 60% 29.85 in 10.0 mi North 5.8 mph - N/A   Scattered Clouds
3:15 PM 34.3 °F 28.4 °F 21.2 °F 59% 29.85 in 10.0 mi North 6.9 mph - N/A   Scattered Clouds
3:35 PM 34.3 °F 30.2 °F 20.7 °F 57% 29.86 in 10.0 mi NNW 4.6 mph - N/A   Mostly Cloudy
4:15 PM 33.3 °F 28.9 °F 20.5 °F 59% 29.86 in 10.0 mi NNW 4.6 mph - N/A   Mostly Cloudy
4:35 PM 32.0 °F 28.7 °F 19.6 °F 60% 29.87 in 10.0 mi NNW 3.5 mph - N/A   Scattered Clouds
4:55 PM 32.0 °F 28.7 °F 20.5 °F 63% 29.87 in 10.0 mi NW 3.5 mph - N/A   Clear
5:15 PM 32.0 °F - 21.0 °F 64% 29.88 in 10.0 mi Calm Calm - N/A   Scattered Clouds
5:35 PM 32.0 °F - 21.6 °F 65% 29.90 in 10.0 mi Calm Calm - N/A   Mostly Cloudy
6:15 PM 32.0 °F - 22.5 °F 68% 29.92 in 10.0 mi Calm Calm - N/A   Scattered Clouds
6:35 PM 29.7 °F - 20.5 °F 69% 29.93 in 10.0 mi Calm Calm - N/A   Mostly Cloudy
6:55 PM 31.6 °F - 22.1 °F 68% 29.93 in 10.0 mi Calm Calm - N/A   Overcast
7:15 PM 29.7 °F - 19.9 °F 67% 29.94 in 10.0 mi Calm Calm - N/A   Scattered Clouds
7:35 PM 29.5 °F - 20.1 °F 68% 29.95 in 10.0 mi Calm Calm - N/A   Scattered Clouds
7:55 PM 29.7 °F - 20.3 °F 68% 29.95 in 10.0 mi Calm Calm - N/A   Mostly Cloudy
8:15 PM 29.7 °F - 20.8 °F 70% 29.96 in 10.0 mi Calm Calm - N/A   Overcast
8:55 PM 29.7 °F - 21.6 °F 72% 29.97 in 10.0 mi Calm Calm - N/A   Overcast
9:15 PM 29.3 °F - 21.7 °F 73% 29.98 in 10.0 mi Calm Calm - N/A   Overcast
9:35 PM 29.1 °F - 21.9 °F 74% 29.98 in 10.0 mi Calm Calm - N/A   Mostly Cloudy
9:55 PM 28.0 °F 24.2 °F 20.7 °F 74% 29.99 in 10.0 mi NNW 3.5 mph - N/A   Mostly Cloudy
10:15 PM 27.1 °F - 19.4 °F 73% 29.99 in 10.0 mi Calm Calm - N/A   Scattered Clouds
10:35 PM 27.1 °F - 19.4 °F 73% 30.00 in 10.0 mi Calm Calm - N/A   Clear
10:55 PM 27.1 °F - 19.4 °F 73% 30.01 in 10.0 mi Calm Calm - N/A   Clear
11:15 PM 27.1 °F 23.2 °F 19.4 °F 73% 30.01 in 10.0 mi NW 3.5 mph - N/A   Clear
11:35 PM 27.1 °F - 19.9 °F 74% 30.02 in 10.0 mi Calm Calm - N/A   Clear
11:55 PM 27.1 °F - 19.4 °F 73% 30.03 in 10.0 mi Calm Calm - N/A   Clear